WZZ527D LHBP-LUKK

Flight info

Callsign WZZ527D
Flight time 1h 10m
Altitude 33000
Route VETIK DCT BADOR DCT BUSES
Aircraft A21N/M-SDE2E3FGHIRWXY/LB1

Departure

Time 2026-05-09 20:36
Airport Budapest Liszt Ferenc International Airport (LHBP)

Arrival

Time 2026-05-09 21:47
Airport Chişinău International Airport (LUKK)
Time Latitude Longitude Altitude Speed Heading
2026-05-09 20:12 47.43391 19.25799 463 ft 0 kts 222°
2026-05-09 20:25 47.43403 19.25815 463 ft 4 kts 225°
2026-05-09 20:25 47.43421 19.25845 463 ft 4 kts 234°
2026-05-09 20:25 47.43434 19.25879 463 ft 4 kts 254°
2026-05-09 20:26 47.43434 19.25912 461 ft 4 kts 306°
2026-05-09 20:26 47.43432 19.25917 463 ft 0 kts 312°
2026-05-09 20:28 47.43446 19.25898 461 ft 5 kts 322°
2026-05-09 20:29 47.43523 19.25742 463 ft 14 kts 311°
2026-05-09 20:29 47.43516 19.25615 463 ft 15 kts 219°
2026-05-09 20:29 47.43434 19.25511 462 ft 16 kts 226°
2026-05-09 20:29 47.43354 19.25400 461 ft 17 kts 220°
2026-05-09 20:30 47.43269 19.25289 460 ft 16 kts 225°
2026-05-09 20:30 47.43185 19.25174 460 ft 13 kts 222°
2026-05-09 20:30 47.43154 19.25133 463 ft 0 kts 223°
2026-05-09 20:35 47.43146 19.25122 463 ft 9 kts 223°
2026-05-09 20:35 47.43082 19.25009 460 ft 9 kts 266°
2026-05-09 20:35 47.43106 19.24931 463 ft 9 kts 311°
2026-05-09 20:35 47.43157 19.24850 459 ft 22 kts 312°
2026-05-09 20:36 47.43433 19.24407 457 ft 95 kts 312°
2026-05-09 20:36 47.44022 19.23454 460 ft 151 kts 312°
2026-05-09 20:36 47.44793 19.22204 734 ft 168 kts 313°
2026-05-09 20:36 47.45579 19.20932 1337 ft 168 kts 313°
2026-05-09 20:37 47.46370 19.19610 1829 ft 178 kts 313°
2026-05-09 20:37 47.47242 19.18196 2250 ft 194 kts 314°
2026-05-09 20:37 47.48194 19.16670 2751 ft 209 kts 316°
2026-05-09 20:37 47.49448 19.15517 3197 ft 224 kts 344°
2026-05-09 20:38 47.51030 19.15063 3564 ft 245 kts 352°
2026-05-09 20:38 47.52792 19.14718 4163 ft 258 kts 356°
2026-05-09 20:38 47.54561 19.15185 4893 ft 264 kts 26°
2026-05-09 20:38 47.56092 19.16718 5689 ft 268 kts 37°
2026-05-09 20:39 47.57568 19.18390 6463 ft 273 kts 37°
2026-05-09 20:39 47.59103 19.20092 7244 ft 277 kts 36°
2026-05-09 20:39 47.60671 19.21797 7998 ft 281 kts 35°
2026-05-09 20:39 47.62271 19.23510 8721 ft 286 kts 34°
2026-05-09 20:40 47.63903 19.25234 9436 ft 290 kts 34°
2026-05-09 20:40 47.65559 19.26969 10153 ft 293 kts 34°
2026-05-09 20:40 47.67270 19.28767 10548 ft 310 kts 34°
2026-05-09 20:40 47.69088 19.30676 10833 ft 329 kts 34°
2026-05-09 20:41 47.70952 19.32822 11097 ft 349 kts 40°
2026-05-09 20:41 47.72753 19.35302 11342 ft 367 kts 42°
2026-05-09 20:41 47.74633 19.37985 11586 ft 384 kts 44°
2026-05-09 20:41 47.76300 19.41170 11952 ft 396 kts 58°
2026-05-09 20:42 47.77374 19.44963 12509 ft 401 kts 74°
2026-05-09 20:42 47.77722 19.49086 13052 ft 405 kts 90°
2026-05-09 20:42 47.77287 19.53227 13568 ft 409 kts 107°
2026-05-09 20:42 47.76090 19.57077 14052 ft 413 kts 123°
2026-05-09 20:43 47.74291 19.60375 14547 ft 415 kts 133°
2026-05-09 20:43 47.72298 19.63547 15072 ft 418 kts 134°
2026-05-09 20:43 47.70325 19.66682 15571 ft 422 kts 133°
2026-05-09 20:43 47.68334 19.69889 16106 ft 425 kts 133°
2026-05-09 20:44 47.66330 19.73135 16633 ft 429 kts 133°
2026-05-09 20:44 47.64311 19.76424 17153 ft 432 kts 133°
2026-05-09 20:44 47.62282 19.79725 17648 ft 435 kts 133°
2026-05-09 20:44 47.60221 19.83062 18127 ft 439 kts 134°
2026-05-09 20:45 47.58151 19.86405 18617 ft 442 kts 134°
2026-05-09 20:45 47.56065 19.89783 19113 ft 445 kts 134°
2026-05-09 20:45 47.53975 19.93171 19575 ft 448 kts 134°
2026-05-09 20:45 47.51861 19.96584 20032 ft 451 kts 134°
2026-05-09 20:46 47.49735 20.00013 20463 ft 454 kts 134°
2026-05-09 20:46 47.47591 20.03464 20880 ft 456 kts 134°
2026-05-09 20:46 47.45437 20.06926 21284 ft 459 kts 134°
2026-05-09 20:46 47.43263 20.10410 21692 ft 462 kts 134°
2026-05-09 20:47 47.41081 20.13903 22101 ft 464 kts 134°
2026-05-09 20:47 47.39044 20.17631 22485 ft 469 kts 126°
2026-05-09 20:47 47.37501 20.21877 22874 ft 473 kts 114°
2026-05-09 20:47 47.36592 20.26487 23234 ft 478 kts 101°
2026-05-09 20:48 47.36358 20.31412 23574 ft 483 kts 88°
2026-05-09 20:48 47.36783 20.36331 23930 ft 486 kts 80°
2026-05-09 20:48 47.37434 20.41245 24277 ft 489 kts 79°
2026-05-09 20:48 47.38098 20.46186 24607 ft 492 kts 79°
2026-05-09 20:49 47.38742 20.51172 24937 ft 495 kts 80°
2026-05-09 20:49 47.39356 20.56172 25359 ft 495 kts 80°
2026-05-09 20:49 47.39963 20.61166 25776 ft 495 kts 80°
2026-05-09 20:49 47.40571 20.66169 26162 ft 495 kts 80°
2026-05-09 20:50 47.41183 20.71173 26580 ft 494 kts 80°
2026-05-09 20:50 47.41804 20.76162 26977 ft 495 kts 80°
2026-05-09 20:50 47.42417 20.81169 27360 ft 495 kts 80°
2026-05-09 20:50 47.43017 20.86169 27736 ft 494 kts 80°
2026-05-09 20:51 47.43612 20.91103 28092 ft 495 kts 80°
2026-05-09 20:51 47.44217 20.96110 28486 ft 494 kts 80°
2026-05-09 20:51 47.44818 21.01107 28867 ft 493 kts 80°
2026-05-09 20:51 47.45407 21.06087 29225 ft 493 kts 81°
2026-05-09 20:52 47.45986 21.11072 29575 ft 492 kts 81°
2026-05-09 20:52 47.46566 21.16080 29910 ft 492 kts 81°
2026-05-09 20:52 47.47148 21.21065 30238 ft 491 kts 81°
2026-05-09 20:52 47.47535 21.24359 30462 ft 491 kts 81°
2026-05-09 20:53 47.48309 21.30954 30858 ft 491 kts 81°
2026-05-09 20:53 47.48890 21.35927 31149 ft 490 kts 81°
2026-05-09 20:53 47.49466 21.40896 31449 ft 490 kts 81°
2026-05-09 20:53 47.50040 21.45868 31708 ft 490 kts 81°
2026-05-09 20:54 47.50430 21.49223 31891 ft 490 kts 81°
2026-05-09 20:54 47.50999 21.54186 32156 ft 489 kts 81°
2026-05-09 20:54 47.51559 21.59151 32393 ft 489 kts 82°
2026-05-09 20:54 47.52118 21.64114 32621 ft 489 kts 82°
2026-05-09 20:55 47.52676 21.69076 32855 ft 489 kts 82°
2026-05-09 20:55 47.53236 21.74049 33059 ft 489 kts 82°
2026-05-09 20:55 47.54345 21.83935 33116 ft 489 kts 82°
2026-05-09 20:56 47.56006 21.98828 33092 ft 489 kts 82°
2026-05-09 20:57 47.57084 22.08765 33088 ft 487 kts 86°
2026-05-09 20:57 47.57126 22.13756 33093 ft 484 kts 97°
2026-05-09 20:57 47.56770 22.18635 33101 ft 483 kts 99°
2026-05-09 20:58 47.55921 22.28492 33101 ft 482 kts 99°
2026-05-09 20:58 47.55096 22.38344 33099 ft 482 kts 99°
2026-05-09 20:59 47.54264 22.48183 33104 ft 481 kts 99°
2026-05-09 20:59 47.53438 22.58038 33110 ft 481 kts 99°
2026-05-09 21:00 47.52176 22.72749 33110 ft 480 kts 99°
2026-05-09 21:00 47.51324 22.82556 33110 ft 480 kts 99°
2026-05-09 21:01 47.50470 22.92345 33110 ft 480 kts 99°
2026-05-09 21:02 47.49136 23.06946 33101 ft 479 kts 100°
2026-05-09 21:02 47.48244 23.16708 33102 ft 479 kts 99°
2026-05-09 21:03 47.47408 23.26481 33093 ft 479 kts 99°
2026-05-09 21:03 47.46524 23.36233 33091 ft 479 kts 99°
2026-05-09 21:04 47.45622 23.45986 33091 ft 479 kts 99°
2026-05-09 21:04 47.44712 23.55735 33080 ft 479 kts 99°
2026-05-09 21:05 47.43796 23.65479 33078 ft 479 kts 100°
2026-05-09 21:05 47.42869 23.75223 33078 ft 479 kts 100°
2026-05-09 21:06 47.41931 23.84992 33088 ft 480 kts 100°
2026-05-09 21:06 47.40988 23.94744 33090 ft 479 kts 100°
2026-05-09 21:07 47.40036 24.04488 33093 ft 479 kts 100°
2026-05-09 21:07 47.39087 24.14122 33090 ft 476 kts 100°
2026-05-09 21:08 47.38124 24.23788 33094 ft 477 kts 100°
2026-05-09 21:08 47.37155 24.33452 33089 ft 475 kts 100°
2026-05-09 21:09 47.36177 24.43117 33092 ft 475 kts 100°
2026-05-09 21:09 47.34977 24.52669 33100 ft 474 kts 103°
2026-05-09 21:10 47.33838 24.62246 33103 ft 473 kts 101°
2026-05-09 21:10 47.32836 24.71826 33099 ft 472 kts 101°
2026-05-09 21:11 47.31863 24.81401 33105 ft 472 kts 98°
2026-05-09 21:12 47.29686 25.05302 33100 ft 470 kts 101°
2026-05-09 21:12 47.28661 25.14763 33101 ft 470 kts 101°
2026-05-09 21:13 47.27631 25.24240 33099 ft 469 kts 101°
2026-05-09 21:13 47.26642 25.33718 33099 ft 466 kts 98°
2026-05-09 21:14 47.25982 25.43220 33103 ft 466 kts 99°
2026-05-09 21:14 47.25027 25.52635 33100 ft 464 kts 101°
2026-05-09 21:15 47.23743 25.61930 33104 ft 463 kts 105°
2026-05-09 21:15 47.22412 25.71140 33102 ft 463 kts 102°
2026-05-09 21:16 47.21315 25.80497 33104 ft 464 kts 101°
2026-05-09 21:16 47.20253 25.89852 33102 ft 464 kts 101°
2026-05-09 21:17 47.19177 25.99194 33100 ft 463 kts 102°
2026-05-09 21:17 47.18094 26.08502 33102 ft 460 kts 102°
2026-05-09 21:18 47.17007 26.17764 33102 ft 460 kts 102°
2026-05-09 21:18 47.15909 26.27029 33102 ft 460 kts 102°
2026-05-09 21:19 47.13709 26.45476 33101 ft 459 kts 102°
2026-05-09 21:20 47.12595 26.54717 33101 ft 459 kts 102°
2026-05-09 21:20 47.11479 26.63938 33092 ft 459 kts 101°
2026-05-09 21:21 47.10705 26.73248 33090 ft 458 kts 103°
2026-05-09 21:21 47.09421 26.82411 33089 ft 458 kts 103°
2026-05-09 21:22 47.08231 26.91590 33090 ft 457 kts 104°
2026-05-09 21:22 47.06963 27.00669 33090 ft 457 kts 103°
2026-05-09 21:23 47.05777 27.09835 33089 ft 457 kts 103°
2026-05-09 21:23 47.04570 27.18978 33087 ft 455 kts 107°
2026-05-09 21:24 47.02870 27.27898 33083 ft 455 kts 106°
2026-05-09 21:24 47.01552 27.36988 33080 ft 456 kts 103°
2026-05-09 21:25 47.00563 27.46119 33081 ft 458 kts 98°
2026-05-09 21:25 46.99830 27.55359 32898 ft 453 kts 101°
2026-05-09 21:26 46.99327 27.59944 31646 ft 461 kts 102°
2026-05-09 21:26 46.98736 27.64608 30394 ft 469 kts 103°
2026-05-09 21:26 46.98112 27.69322 29176 ft 472 kts 103°
2026-05-09 21:26 46.97480 27.74068 27938 ft 475 kts 103°
2026-05-09 21:27 46.96845 27.78843 26624 ft 479 kts 103°
2026-05-09 21:27 46.96207 27.83632 25268 ft 481 kts 103°
2026-05-09 21:27 46.95565 27.88448 24082 ft 481 kts 102°
2026-05-09 21:27 46.94936 27.93155 23167 ft 474 kts 102°
2026-05-09 21:28 46.94307 27.97848 22394 ft 464 kts 102°
2026-05-09 21:28 46.93691 28.02430 21733 ft 452 kts 102°
2026-05-09 21:28 46.93267 28.06956 20995 ft 448 kts 94°
2026-05-09 21:28 46.93466 28.11474 20241 ft 445 kts 81°
2026-05-09 21:29 46.94351 28.15787 19518 ft 441 kts 68°
2026-05-09 21:29 46.95689 28.19801 18808 ft 437 kts 64°
2026-05-09 21:29 46.97089 28.23727 18114 ft 433 kts 64°
2026-05-09 21:29 46.98476 28.27629 17443 ft 430 kts 64°
2026-05-09 21:30 46.99836 28.31505 16849 ft 424 kts 64°
2026-05-09 21:30 47.01151 28.35277 16273 ft 419 kts 64°
2026-05-09 21:30 47.02474 28.39065 15695 ft 414 kts 64°
2026-05-09 21:30 47.03776 28.42811 15091 ft 410 kts 64°
2026-05-09 21:31 47.05060 28.46521 14493 ft 406 kts 64°
2026-05-09 21:31 47.06337 28.50213 13931 ft 402 kts 65°
2026-05-09 21:31 47.07596 28.53861 13338 ft 401 kts 65°
2026-05-09 21:31 47.08852 28.57512 12713 ft 400 kts 65°
2026-05-09 21:32 47.10100 28.61142 12127 ft 395 kts 65°
2026-05-09 21:32 47.11315 28.64677 11794 ft 381 kts 65°
2026-05-09 21:32 47.12487 28.68093 11549 ft 366 kts 65°
2026-05-09 21:32 47.13608 28.71376 11336 ft 352 kts 65°
2026-05-09 21:33 47.14674 28.74486 11161 ft 338 kts 65°
2026-05-09 21:33 47.15651 28.77550 10962 ft 324 kts 73°
2026-05-09 21:33 47.15979 28.80716 10670 ft 305 kts 97°
2026-05-09 21:33 47.15451 28.83622 10333 ft 288 kts 119°
2026-05-09 21:34 47.14249 28.85915 9759 ft 282 kts 141°
2026-05-09 21:34 47.12599 28.87342 9210 ft 279 kts 162°
2026-05-09 21:34 47.10691 28.87892 8785 ft 274 kts 171°
2026-05-09 21:34 47.08962 28.88915 8430 ft 268 kts 141°
2026-05-09 21:35 47.07884 28.91117 8131 ft 269 kts 110°
2026-05-09 21:35 47.07497 28.93764 7843 ft 268 kts 102°
2026-05-09 21:35 47.07068 28.96415 7541 ft 265 kts 110°
2026-05-09 21:35 47.06352 28.98896 7220 ft 264 kts 117°
2026-05-09 21:36 47.05508 29.01279 6883 ft 263 kts 120°
2026-05-09 21:36 47.04627 29.03620 6561 ft 266 kts 120°
2026-05-09 21:36 47.03736 29.06034 6276 ft 267 kts 120°
2026-05-09 21:36 47.02842 29.08407 5961 ft 265 kts 121°
2026-05-09 21:37 47.01927 29.10751 5632 ft 264 kts 121°
2026-05-09 21:37 47.01003 29.13064 5299 ft 263 kts 122°
2026-05-09 21:37 47.00084 29.15338 4974 ft 262 kts 122°
2026-05-09 21:37 46.99150 29.17627 4619 ft 262 kts 122°
2026-05-09 21:38 46.98210 29.19917 4268 ft 262 kts 122°
2026-05-09 21:38 46.97264 29.22201 3900 ft 262 kts 123°
2026-05-09 21:38 46.96280 29.24433 3546 ft 258 kts 123°
2026-05-09 21:38 46.95314 29.26615 3247 ft 253 kts 123°
2026-05-09 21:39 46.94363 29.28761 2922 ft 249 kts 123°
2026-05-09 21:39 46.93428 29.30868 2629 ft 245 kts 123°
2026-05-09 21:39 46.92522 29.32907 2537 ft 232 kts 123°
2026-05-09 21:39 46.91479 29.34674 2547 ft 230 kts 143°
2026-05-09 21:40 46.90035 29.35638 2532 ft 230 kts 169°
2026-05-09 21:40 46.88449 29.35557 2521 ft 231 kts 195°
2026-05-09 21:40 46.87033 29.34468 2502 ft 233 kts 220°
2026-05-09 21:40 46.86019 29.32629 2501 ft 234 kts 240°
2026-05-09 21:41 46.85555 29.30363 2495 ft 236 kts 267°
2026-05-09 21:41 46.85921 29.28046 2495 ft 238 kts 296°
2026-05-09 21:41 46.86461 29.26655 2506 ft 238 kts 301°
2026-05-09 21:41 46.87667 29.23977 2506 ft 238 kts 303°
2026-05-09 21:42 46.88588 29.21963 2503 ft 238 kts 303°
2026-05-09 21:42 46.89498 29.19941 2495 ft 238 kts 302°
2026-05-09 21:42 46.90398 29.17895 2499 ft 239 kts 301°
2026-05-09 21:42 46.91272 29.15843 2502 ft 237 kts 300°
2026-05-09 21:43 46.92119 29.13771 2504 ft 236 kts 299°
2026-05-09 21:43 46.92659 29.12353 2484 ft 236 kts 294°
2026-05-09 21:43 46.93124 29.10143 2337 ft 215 kts 277°
2026-05-09 21:43 46.93142 29.08125 2080 ft 193 kts 266°
2026-05-09 21:44 46.93062 29.06279 1806 ft 168 kts 265°
2026-05-09 21:44 46.93015 29.04646 1551 ft 147 kts 267°
2026-05-09 21:44 46.92982 29.03213 1343 ft 139 kts 267°
2026-05-09 21:44 46.92952 29.01801 1186 ft 139 kts 267°
2026-05-09 21:45 46.92915 29.00412 1036 ft 138 kts 267°
2026-05-09 21:45 46.92889 28.99007 828 ft 138 kts 268°
2026-05-09 21:45 46.92873 28.97602 682 ft 138 kts 268°
2026-05-09 21:45 46.92845 28.96198 540 ft 139 kts 268°
2026-05-09 21:46 46.92814 28.94801 412 ft 131 kts 268°
2026-05-09 21:46 46.92792 28.93680 413 ft 82 kts 267°
2026-05-09 21:46 46.92782 28.93077 414 ft 50 kts 269°
2026-05-09 21:46 46.92774 28.92569 415 ft 50 kts 272°
2026-05-09 21:47 46.92765 28.92161 414 ft 24 kts 266°
2026-05-09 21:47 46.92847 28.91999 413 ft 24 kts
2026-05-09 21:47 46.93019 28.91990 413 ft 25 kts 357°
2026-05-09 21:47 46.93189 28.92005 413 ft 20 kts 11°